[[{"header":{"parameterUnit":"m.s-1","parameterCategory":2,"la1":30.2991,"la2":30.254,"lo1":-89.0895,"lo2":-89.0444,"dy":0.0017,"dx":0.0017,"nx":28,"ny":28,"refTime":"2025-08-20T09:00:00:Z","depth":"0","parameterNumber":2,"parameterNumberName":"U-component_of_CURRENTS"},"data":[0,0,0,0,0,0,0,0,0,0,0,0,0,0,0,0,0,0,0,0,0,0,0,0,0,0,0,0,0,0,0,0,0,0,0,0,0,0,0,0,0,0,0,0,0,0,0,0,0,0,0,0,0,0,0,0,0,0,0.3095,0.3096,0,0.316,0.3161,0.3162,0.3158,0.3157,0.3156,0.3155,0.3164,0.3165,0.3166,0,0,0,0,0,0,0,0,0,0,0,0,0,0.3,0.3001,0.3095,0.3096,0.3097,0.316,0.3161,0.3162,0.3158,0.3157,0.3156,0.3155,0.3164,0.3165,0.3166,0,0,0,0,0,0,0,0,0,0,0,0,0,0.305,0.3002,0.3095,0.3103,0.3105,0.316,0.3161,0.3162,0.3158,0.3157,0.3155,0.3154,0.3164,0.3165,0.3167,0.3202,0,0,0.3171,0.3172,0,0,0,0,0,0,0,0,0.3047,0.3053,0.3101,0.3103,0.3105,0.3151,0.3131,0.3173,0.3158,0.3137,0.3155,0.3154,0.3156,0.3158,0.3173,0.3202,0.3202,0.3172,0.3172,0.3173,0.3174,0,0,0,0,0,0,0,0.3043,0.305,0.312,0.3102,0.3105,0.3115,0.312,0.3139,0.3151,0.3138,0.3139,0.3148,0.3156,0.3171,0.3173,0.3202,0.3171,0.3173,0.3174,0.3174,0.3272,0.3274,0,0,0,0,0,0,0.3038,0.3047,0.3118,0.3122,0.3073,0.3118,0.3124,0.3136,0.3152,0.3154,0.3149,0.3148,0.3169,0.3171,0.3173,0.3235,0.3173,0.3175,0.3175,0.327,0.3272,0.3274,0,0,0,0,0,0,0.3035,0.3043,0.3115,0.3086,0.3096,0.3121,0.3135,0.3138,0.3152,0.3161,0.3161,0.3159,0.3168,0.3171,0.3196,0.3234,0.3175,0.3177,0.3268,0.3271,0.3273,0.3347,0,0,0,0,0,0,0.3032,0.3042,0.3052,0.3086,0.3098,0.3156,0.3136,0.314,0.316,0.3159,0.317,0.317,0.3167,0.3194,0.3197,0.3235,0.3178,0.3266,0.327,0.3273,0.3342,0.3352,0.3359,0,0,0,0,0,0.3029,0.3048,0.3052,0.3061,0.311,0.3157,0.3165,0.3176,0.3162,0.3181,0.3184,0.3169,0.3216,0.3196,0.32,0.324,0.3265,0.3269,0.3272,0.3338,0.335,0.3359,0,0,0,0,0,0,0.3006,0.305,0.3055,0.3085,0.3122,0.3157,0.3176,0.3181,0.3201,0.3194,0.319,0.3192,0.3231,0.3224,0.3203,0.3277,0.3239,0.3243,0.3288,0.3298,0.3307,0.333,0.3179,0,0,0,0,0,0.3008,0.3034,0.3077,0.31,0.312,0.3148,0.3167,0.3179,0.3201,0.3208,0.3214,0.3225,0.3253,0.3263,0.3282,0.3322,0.3372,0.335,0.3358,0.3365,0.3388,0.3494,0.3515,0.3287,0.3286,0.3286,0,0,0.3003,0.3032,0.3045,0.3097,0.3123,0.3168,0.3156,0.3193,0.3228,0.3206,0.3246,0.3255,0.327,0.3317,0.3334,0.3314,0.3462,0.337,0.3376,0.3395,0.3501,0.3523,0.3543,0.3289,0.3289,0.3288,0,0,0.3015,0.3037,0.3067,0.3108,0.3157,0.318,0.3192,0.3234,0.3251,0.3294,0.3291,0.3329,0.3354,0.3388,0.3405,0.3473,0.3504,0.3469,0.3534,0.3637,0.3657,0.3676,0.3794,0.3822,0.3473,0.3473,0.3473,0,0.3007,0.3057,0.3083,0.3131,0.317,0.3187,0.3237,0.3265,0.3307,0.3343,0.3311,0.3398,0.3398,0.3487,0.3505,0.3497,0.3562,0.3492,0.3651,0.367,0.3688,0.3804,0.3834,0.3477,0.3477,0.3476,0.3476,0,0.3051,0.3096,0.312,0.3187,0.3229,0.3276,0.3323,0.3362,0.3375,0.3412,0.3492,0.3505,0.3566,0.3567,0.3554,0.368,0.3691,0.3652,0.3629,0.3716,0.3832,0.3863,0.3483,0.3481,0.348,0.3479,0,0,0.3024,0.3131,0.314,0.3201,0.3268,0.332,0.3376,0.3459,0.3535,0.3553,0.3665,0.3687,0.3705,0.3726,0.3725,0.3798,0.3973,0.3778,0.3782,0.3903,0.4231,0.4164,0.419,0.3964,0.3969,0.3973,0.4272,0,0.3053,0.3155,0.3197,0.3303,0.3368,0.3418,0.3487,0.3562,0.3617,0.3729,0.3759,0.3853,0.3763,0.3818,0.3874,0.3959,0.4053,0.3898,0.4122,0.4129,0.4064,0.4222,0.4012,0.4254,0.4301,0.4306,0.431,0,0.3086,0.3159,0.326,0.3405,0.3439,0.3504,0.3647,0.3716,0.3851,0.3904,0.3983,0.4017,0.4134,0.4045,0.4229,0.4137,0.4198,0.4243,0.4255,0.4187,0.4118,0.4169,0.4307,0.4197,0.4357,0.4353,0.4349,0,0.3081,0.3211,0.3299,0.3346,0.3495,0.3564,0.3646,0.3773,0.3857,0.4037,0.4121,0.4241,0.4326,0.4413,0.4453,0.4382,0.4664,0.4582,0.4587,0.4584,0.4447,0.4422,0.4508,0.4742,0.4742,0.4741,0.474,0,0.311,0.3188,0.3316,0.3379,0.3513,0.3606,0.3755,0.3855,0.4011,0.4121,0.4216,0.4315,0.4418,0.4548,0.4579,0.4686,0.4771,0.4656,0.4672,0.4466,0.4441,0.4367,0.4316,0.4752,0.475,0.4747,0.4746,0,0.31,0.3173,0.3301,0.3465,0.3517,0.3622,0.38,0.3897,0.4051,0.4205,0.4268,0.4438,0.461,0.4708,0.4894,0.4848,0.4838,0.4972,0.4729,0.4708,0.4561,0.4521,0.4499,0.4376,0.5063,0.5063,0.5064,0,0.3109,0.3167,0.3346,0.3415,0.3494,0.3643,0.3725,0.3896,0.3985,0.4237,0.4301,0.4536,0.4636,0.4909,0.4929,0.5056,0.4885,0.4916,0.472,0.4579,0.455,0.4352,0.4234,0.4597,0.4593,0.459,0.4588,0,0.3138,0.3193,0.3304,0.3425,0.3526,0.3623,0.3756,0.3823,0.4002,0.4125,0.4278,0.4401,0.4659,0.4694,0.4873,0.4889,0.4671,0.4858,0.4781,0.4269,0.3995,0.3871,0.4392,0.4562,0.4564,0.4566,0.4568,0.4569,0.3163,0.3225,0.3344,0.3449,0.353,0.3562,0.3595,0.3708,0.3811,0.393,0.4133,0.4225,0.4423,0.4634,0.4647,0.454,0.4523,0.4393,0.4394,0.4234,0.3981,0.4455,0.4574,0.4577,0.4579,0.4581,0.4583,0,0.3173,0.3235,0.3347,0.3438,0.3444,0.3508,0.3569,0.3546,0.3575,0.3711,0.3822,0.3955,0.4049,0.4178,0.4212,0.4086,0.3871,0.3993,0.3665,0.3599,0.4103,0.3942,0.3843,0.3843,0.3843,0.3843,0.3843,0.3843,0.3195,0.3267,0.3306,0.3315,0.334,0.3279,0.3263,0.324,0.3282,0.3277,0.3307,0.346,0.3759,0.3955,0.3868,0.3761,0.3484,0.3331,0.3366,0.3717,0.3752,0.3785,0.3621,0.3456,0.3456,0.2652,0.2647,0.2642]},{"header":{"parameterUnit":"m.s-1","parameterCategory":2,"la1":30.2991,"la2":30.254,"lo1":-89.0895,"lo2":-89.0444,"dy":0.0017,"dx":0.0017,"nx":28,"ny":28,"refTime":"2025-08-20T09:00:00:Z","depth":"0","parameterNumber":3,"parameterNumberName":"V-component_of_CURRENTS"},"data":[0,0,0,0,0,0,0,0,0,0,0,0,0,0,0,0,0,0,0,0,0,0,0,0,0,0,0,0,0,0,0,0,0,0,0,0,0,0,0,0,0,0,0,0,0,0,0,0,0,0,0,0,0,0,0,0,0,0,0.019,0.0189,0,0.0123,0.0123,0.0122,0.0069,0.0068,0.0068,0.0067,-0.0026,-0.0028,-0.003,0,0,0,0,0,0,0,0,0,0,0,0,0,0.0235,0.0235,0.019,0.0189,0.0188,0.0124,0.0123,0.0122,0.0069,0.0068,0.0068,0.0067,-0.0025,-0.0028,-0.003,0,0,0,0,0,0,0,0,0,0,0,0,0,0.0196,0.0235,0.019,0.0155,0.0151,0.0124,0.0122,0.0121,0.0069,0.0068,0.0067,0.0067,-0.0025,-0.0028,-0.0031,-0.0036,0,0,-0.004,-0.0041,0,0,0,0,0,0,0,0,0.0199,0.0195,0.0161,0.0157,0.0153,0.0104,0.0104,0.0068,0.0069,0.0099,0.0067,0.0067,0.0016,0.001,-0.0002,-0.0041,-0.0045,-0.004,-0.0042,-0.0044,-0.0044,0,0,0,0,0,0,0,0.0201,0.0197,0.0162,0.016,0.0155,0.013,0.0124,0.0097,0.0061,0.0096,0.0093,0.0087,0.0014,0.0001,-0.0005,-0.0046,-0.004,-0.0043,-0.0045,-0.0046,-0.0108,-0.0108,0,0,0,0,0,0,0.0214,0.02,0.0165,0.0161,0.0176,0.013,0.0123,0.012,0.0062,0.0053,0.0088,0.0085,0.0007,-0.0001,-0.0008,-0.0018,-0.0044,-0.0046,-0.0048,-0.0108,-0.0108,-0.0108,0,0,0,0,0,0,0.0215,0.0212,0.0167,0.0179,0.0172,0.0131,0.0127,0.0119,0.0107,0.0056,0.0046,0.0084,0.0006,-0.0004,-0.0029,-0.0022,-0.0048,-0.0051,-0.0108,-0.0108,-0.0108,-0.0038,0,0,0,0,0,0,0.0217,0.0213,0.0215,0.018,0.0172,0.0159,0.0127,0.0118,0.0105,0.0101,0.0049,0.004,0.0004,-0.0024,-0.0032,-0.0027,-0.0053,-0.0109,-0.0108,-0.0108,-0.0041,-0.0035,-0.0031,0,0,0,0,0,0.0219,0.023,0.0216,0.0211,0.0176,0.0159,0.0153,0.012,0.0106,0.0106,0.007,0.0041,-0.0027,-0.0026,-0.0036,-0.0031,-0.0109,-0.0108,-0.0108,-0.0043,-0.0036,-0.0031,0,0,0,0,0,0,0.0249,0.0224,0.0208,0.021,0.0189,0.0151,0.015,0.0128,0.01,0.0097,0.0046,0.0035,0.0013,-0.0017,-0.0014,-0.0049,-0.0074,-0.0075,-0.0021,-0.0015,-0.0011,0.0026,-0.0056,0,0,0,0,0,0.0259,0.026,0.0229,0.023,0.0224,0.0188,0.0178,0.0158,0.0129,0.0116,0.0079,0.004,0.0008,-0.0009,-0.0042,-0.0056,-0.0062,-0.0061,-0.0056,-0.0052,-0.0029,-0.0024,-0.0016,-0.0106,-0.0106,-0.0106,0,0,0.027,0.0257,0.0257,0.0237,0.0218,0.0219,0.018,0.0173,0.0171,0.0111,0.0097,0.0057,0.0008,-0.0012,-0.0024,-0.0036,-0.0033,-0.0051,-0.0047,-0.0026,-0.0023,-0.0014,-0.0006,-0.0106,-0.0106,-0.0106,0,0,0.0302,0.0284,0.0299,0.0287,0.0267,0.0245,0.0247,0.0215,0.0198,0.018,0.0136,0.0107,0.0055,0.0025,0.0002,0.0017,-0.0007,-0.0001,0.0055,0.0058,0.0066,0.0074,0.0069,0.0075,0.0002,0.0002,0.0002,0,0.0318,0.0332,0.03,0.0311,0.0311,0.0263,0.0282,0.0257,0.0219,0.0226,0.0185,0.0134,0.0075,0.0072,0.0061,0.003,0.0029,0.0037,0.0068,0.0074,0.0081,0.0074,0.008,0.0006,0.0005,0.0005,0.0005,0,0.036,0.0372,0.0381,0.0379,0.0371,0.0382,0.0347,0.0339,0.031,0.0296,0.0286,0.0211,0.0188,0.0152,0.0101,0.0117,0.0101,0.0074,0.006,0.0095,0.0084,0.009,0.0011,0.0009,0.0008,0.0007,0,0,0.0401,0.0412,0.0416,0.0441,0.0414,0.0423,0.0417,0.0421,0.0461,0.0394,0.0446,0.0342,0.0316,0.0288,0.0225,0.0211,0.0221,0.0163,0.0161,0.0171,0.0234,0.0202,0.0204,0.0207,0.0208,0.0209,0.0207,0,0.0449,0.05,0.0482,0.0533,0.0561,0.0524,0.0539,0.0534,0.0523,0.056,0.0486,0.0505,0.0364,0.0373,0.0324,0.0267,0.024,0.0224,0.0188,0.0187,0.0166,0.0211,0.017,0.0164,0.0212,0.0213,0.0213,0,0.0501,0.0533,0.0595,0.0644,0.0655,0.068,0.0726,0.0736,0.0754,0.0754,0.0738,0.0696,0.0652,0.0544,0.0436,0.0438,0.0337,0.0276,0.0274,0.023,0.0166,0.0137,0.0172,-0.0024,0.0221,0.022,0.022,0,0.057,0.0616,0.0679,0.069,0.0728,0.0766,0.079,0.0814,0.0876,0.0908,0.0976,0.0888,0.0895,0.0752,0.0564,0.0521,0.0471,0.0396,0.027,0.0266,0.0218,0.0208,0.0074,0.0333,0.0333,0.0333,0.0333,0,0.064,0.0694,0.0732,0.0774,0.0885,0.0868,0.0997,0.1008,0.1083,0.1201,0.1099,0.1172,0.0953,0.0878,0.0667,0.0492,0.0538,0.0302,0.0274,0.0238,0.023,0.0046,-0.0071,0.0333,0.0333,0.0333,0.0333,0,0.0722,0.0732,0.0829,0.0896,0.0929,0.1019,0.1149,0.1245,0.129,0.1446,0.1476,0.1427,0.1325,0.1091,0.0892,0.066,0.0358,0.04,0.0365,0.0332,0.0014,-0.0097,-0.0242,-0.0333,0.0272,0.0271,0.027,0,0.0773,0.0827,0.094,0.1015,0.1063,0.1188,0.1284,0.1352,0.1468,0.1601,0.1696,0.166,0.1635,0.1321,0.093,0.0594,0.0374,0.0325,0.0216,0.0013,-0.0131,-0.0212,-0.0284,0.0173,0.0171,0.017,0.017,0,0.0885,0.0924,0.1011,0.1158,0.1277,0.1415,0.156,0.1688,0.1785,0.1913,0.2042,0.2045,0.1745,0.1387,0.0924,0.0658,0.0171,0.0293,0.0097,-0.0198,-0.0307,-0.0412,0.0148,0.016,0.0161,0.0162,0.0162,0.0163,0.0982,0.1069,0.1172,0.1317,0.1446,0.1612,0.1747,0.1907,0.2102,0.2286,0.2274,0.2286,0.1782,0.1145,0.0781,0.0097,0.0112,-0.0136,-0.0245,-0.03,-0.0417,0.0124,0.0093,0.0094,0.0094,0.0094,0.0095,0,0.1078,0.1168,0.1313,0.1479,0.1618,0.1667,0.19,0.2042,0.2269,0.2404,0.2499,0.2234,0.1611,0.098,0.0078,-0.0372,-0.0544,-0.0612,-0.0754,-0.0796,-0.0302,-0.0337,-0.0479,-0.0478,-0.0478,-0.0478,-0.0478,-0.0478,0.1135,0.1274,0.1342,0.1578,0.1692,0.189,0.2023,0.2237,0.2375,0.252,0.2493,0.2461,0.198,0.0413,-0.0622,-0.0854,-0.1159,-0.124,-0.1349,-0.105,-0.1015,-0.0981,-0.1041,-0.1328,-0.1329,-0.1808,-0.1813,-0.1817]}],[{"header":{"parameterUnit":"m.s-1","parameterCategory":2,"la1":30.2991,"la2":30.254,"lo1":-89.0895,"lo2":-89.0444,"dy":0.0017,"dx":0.0017,"nx":28,"ny":28,"refTime":"2025-08-20T09:00:00:Z","depth":"2","parameterNumber":2,"parameterNumberName":"U-component_of_CURRENTS"},"data":[0,0,0,0,0,0,0,0,0,0,0,0,0,0,0,0,0,0,0,0,0,0,0,0,0,0,0,0,0,0,0,0,0,0,0,0,0,0,0,0,0,0,0,0,0,0,0,0,0,0,0,0,0,0,0,0,0,0,0.2708,0.2708,0,0.2736,0.2736,0.2736,0.2733,0.2732,0.2732,0.2732,0.2785,0.2787,0.2788,0,0,0,0,0,0,0,0,0,0,0,0,0,0.2634,0.2635,0.2708,0.2708,0.2709,0.2736,0.2736,0.2736,0.2733,0.2732,0.2732,0.2732,0.2785,0.2787,0.2788,0,0,0,0,0,0,0,0,0,0,0,0,0,0.266,0.2636,0.2707,0.2714,0.2715,0.2736,0.2736,0.2736,0.2733,0.2732,0.2732,0.2732,0.2784,0.2786,0.2789,0.2803,0,0,0.2795,0.2796,0,0,0,0,0,0,0,0,0.2659,0.2662,0.2712,0.2714,0.2715,0.2735,0.273,0.2761,0.2733,0.2721,0.2732,0.2732,0.2774,0.2777,0.2775,0.2805,0.2808,0.2795,0.2797,0.2798,0.2798,0,0,0,0,0,0,0,0.2657,0.2661,0.2714,0.2713,0.2715,0.2711,0.2714,0.2736,0.2744,0.2722,0.2723,0.2734,0.2774,0.2773,0.2777,0.2809,0.2795,0.2797,0.2799,0.2799,0.2911,0.2912,0,0,0,0,0,0,0.2664,0.266,0.2713,0.2715,0.2692,0.2713,0.2716,0.2725,0.2743,0.2747,0.2734,0.2734,0.2769,0.2774,0.2779,0.2871,0.2798,0.28,0.2801,0.2909,0.2911,0.2913,0,0,0,0,0,0,0.2662,0.2669,0.2712,0.2692,0.2698,0.2715,0.2724,0.2726,0.2742,0.2753,0.2756,0.2752,0.277,0.2776,0.281,0.287,0.2801,0.2803,0.2907,0.291,0.2912,0.3008,0,0,0,0,0,0,0.266,0.2668,0.2681,0.2693,0.27,0.2738,0.2725,0.2726,0.275,0.275,0.277,0.2773,0.277,0.2807,0.2813,0.2872,0.2804,0.2905,0.2908,0.2911,0.3003,0.3013,0.3022,0,0,0,0,0,0.2657,0.2676,0.2681,0.2688,0.2715,0.2739,0.2742,0.275,0.2752,0.2763,0.2775,0.2773,0.2831,0.281,0.2816,0.2877,0.2904,0.2907,0.2911,0.2998,0.3011,0.3022,0,0,0,0,0,0,0.2651,0.2678,0.2684,0.271,0.273,0.2741,0.2757,0.2763,0.2781,0.2785,0.2789,0.2794,0.2849,0.2843,0.282,0.2916,0.287,0.2875,0.2935,0.2947,0.2957,0.297,0.2806,0,0,0,0,0,0.2657,0.2684,0.2701,0.2728,0.2736,0.275,0.2764,0.277,0.2787,0.2794,0.2814,0.2835,0.2866,0.2889,0.2906,0.2958,0.2988,0.3002,0.3012,0.302,0.3034,0.313,0.3151,0.2925,0.2925,0.2925,0,0,0.2658,0.2686,0.2696,0.273,0.2744,0.2767,0.2757,0.2785,0.2816,0.2799,0.2852,0.287,0.2885,0.2942,0.2968,0.2949,0.3102,0.3025,0.3033,0.3042,0.3137,0.3159,0.3179,0.2928,0.2927,0.2927,0,0,0.2678,0.2701,0.2723,0.2744,0.2779,0.2793,0.2807,0.2831,0.2851,0.2899,0.2902,0.2948,0.2994,0.302,0.3038,0.3112,0.3147,0.3131,0.3204,0.3297,0.3317,0.3335,0.3414,0.3438,0.3142,0.3142,0.3143,0,0.2678,0.2714,0.2734,0.2762,0.2793,0.2809,0.284,0.2862,0.2901,0.2949,0.2928,0.3028,0.3032,0.3119,0.3146,0.3138,0.3199,0.3159,0.3314,0.3332,0.3349,0.3424,0.345,0.3147,0.3147,0.3146,0.3146,0,0.2703,0.274,0.2759,0.2806,0.2841,0.2872,0.2909,0.2942,0.2978,0.3033,0.3127,0.313,0.3199,0.3211,0.3203,0.3333,0.3341,0.3313,0.3288,0.3378,0.3451,0.3476,0.3155,0.3153,0.3151,0.315,0,0,0.2685,0.2758,0.2767,0.281,0.2869,0.2906,0.2959,0.3041,0.3126,0.316,0.3281,0.3313,0.335,0.337,0.3371,0.3444,0.3606,0.3445,0.3448,0.3532,0.3835,0.3669,0.368,0.3629,0.3634,0.3637,0.3843,0,0.27,0.2769,0.2804,0.2885,0.2927,0.2967,0.3042,0.3127,0.3207,0.333,0.3364,0.3485,0.3403,0.3469,0.352,0.3597,0.3676,0.3554,0.3727,0.3732,0.3581,0.3704,0.3413,0.3558,0.3867,0.3871,0.3874,0,0.2715,0.277,0.2845,0.2964,0.2988,0.304,0.3183,0.3266,0.3427,0.3495,0.3592,0.3652,0.3759,0.3681,0.3829,0.3769,0.3815,0.385,0.3859,0.3686,0.3612,0.3515,0.3591,0.3916,0.3912,0.3909,0.3907,0,0.2715,0.2807,0.2882,0.2913,0.3037,0.3087,0.3174,0.3333,0.3443,0.3642,0.373,0.386,0.3926,0.401,0.4023,0.3986,0.4184,0.4138,0.4025,0.4014,0.3786,0.3745,0.4265,0.4264,0.4264,0.4263,0.4263,0,0.2729,0.2791,0.2891,0.2926,0.3053,0.3145,0.3326,0.3401,0.3586,0.3737,0.3837,0.3926,0.4019,0.4108,0.413,0.4136,0.4265,0.407,0.4068,0.3807,0.3768,0.4077,0.4052,0.4271,0.4269,0.4268,0.4266,0,0.273,0.2783,0.2883,0.3007,0.3056,0.3168,0.338,0.3508,0.3663,0.3839,0.3909,0.4042,0.4153,0.4199,0.4347,0.4243,0.43,0.4266,0.3936,0.3888,0.4056,0.4034,0.4216,0.4212,0.4209,0.4206,0.4204,0,0.2731,0.2778,0.2931,0.3,0.3056,0.3237,0.3354,0.3533,0.3651,0.3875,0.3928,0.4096,0.4118,0.4233,0.4191,0.4214,0.4279,0.3913,0.3756,0.4078,0.4059,0.4041,0.4024,0.352,0.3512,0.3506,0.3501,0,0.274,0.2802,0.2888,0.3018,0.3128,0.3261,0.3413,0.3494,0.3695,0.3764,0.3841,0.3888,0.4002,0.387,0.3882,0.3848,0.3883,0.378,0.4266,0.3536,0.3426,0.3404,0.341,0.3444,0.345,0.3454,0.3457,0.3459,0.2745,0.2816,0.2921,0.3027,0.3145,0.3195,0.3259,0.3356,0.343,0.3457,0.3617,0.3547,0.36,0.3453,0.3382,0.3349,0.3589,0.3421,0.344,0.3466,0.3307,0.3192,0.314,0.3143,0.3146,0.3149,0.3152,0,0.2704,0.2796,0.2912,0.3013,0.3061,0.3146,0.323,0.323,0.3189,0.32,0.3186,0.2888,0.2823,0.292,0.2784,0.2764,0.274,0.266,0.2615,0.2674,0.2725,0.2527,0.2155,0.2151,0.2148,0.2145,0,0,0.2702,0.2752,0.2797,0.2845,0.2937,0.2933,0.2928,0.2869,0.2851,0.2636,0.2527,0.2682,0.2806,0.2421,0.2396,0.2264,0.2446,0.2181,0.2988,0.2994,0.3041,0.3179,0.294,0,0,0,0,0]},{"header":{"parameterUnit":"m.s-1","parameterCategory":2,"la1":30.2991,"la2":30.254,"lo1":-89.0895,"lo2":-89.0444,"dy":0.0017,"dx":0.0017,"nx":28,"ny":28,"refTime":"2025-08-20T09:00:00:Z","depth":"2","parameterNumber":3,"parameterNumberName":"V-component_of_CURRENTS"},"data":[0,0,0,0,0,0,0,0,0,0,0,0,0,0,0,0,0,0,0,0,0,0,0,0,0,0,0,0,0,0,0,0,0,0,0,0,0,0,0,0,0,0,0,0,0,0,0,0,0,0,0,0,0,0,0,0,0,0,0.0015,0.0014,0,-0.0051,-0.0052,-0.0053,-0.0097,-0.0097,-0.0098,-0.0098,-0.0177,-0.0179,-0.0181,0,0,0,0,0,0,0,0,0,0,0,0,0,0.0063,0.0063,0.0015,0.0014,0.0014,-0.0051,-0.0052,-0.0053,-0.0097,-0.0097,-0.0098,-0.0098,-0.0176,-0.0179,-0.0181,0,0,0,0,0,0,0,0,0,0,0,0,0,0.0023,0.0063,0.0015,-0.0015,-0.0019,-0.0051,-0.0052,-0.0053,-0.0097,-0.0097,-0.0098,-0.0098,-0.0176,-0.0178,-0.0181,-0.0193,0,0,-0.019,-0.0191,0,0,0,0,0,0,0,0,0.0026,0.0021,-0.001,-0.0013,-0.0017,-0.0065,-0.0064,-0.01,-0.0097,-0.0069,-0.0098,-0.0098,-0.014,-0.0146,-0.0159,-0.0197,-0.02,-0.019,-0.0192,-0.0193,-0.0194,0,0,0,0,0,0,0,0.0028,0.0024,-0.0012,-0.0011,-0.0015,-0.0039,-0.0045,-0.0071,-0.0103,-0.0071,-0.0074,-0.008,-0.0142,-0.0156,-0.0161,-0.0201,-0.019,-0.0193,-0.0195,-0.0196,-0.025,-0.025,0,0,0,0,0,0,0.0041,0.0027,-0.001,-0.0014,0.0005,-0.004,-0.0046,-0.005,-0.0102,-0.011,-0.0079,-0.0081,-0.0151,-0.0158,-0.0164,-0.0167,-0.0193,-0.0196,-0.0198,-0.025,-0.025,-0.025,0,0,0,0,0,0,0.0043,0.0039,-0.0008,0.0006,-0.0002,-0.004,-0.0044,-0.0051,-0.006,-0.0108,-0.0117,-0.008,-0.0151,-0.016,-0.0181,-0.0171,-0.0197,-0.02,-0.0251,-0.025,-0.025,-0.0181,0,0,0,0,0,0,0.0044,0.004,0.0042,0.0007,-0.0002,-0.0018,-0.0044,-0.0053,-0.0063,-0.0066,-0.0111,-0.012,-0.0152,-0.0176,-0.0184,-0.0175,-0.0202,-0.0251,-0.025,-0.025,-0.0184,-0.0179,-0.0174,0,0,0,0,0,0.0046,0.0056,0.0043,0.0039,0.0002,-0.0017,-0.0024,-0.0053,-0.0062,-0.0062,-0.0093,-0.0118,-0.0178,-0.0178,-0.0187,-0.0179,-0.0251,-0.0251,-0.025,-0.0186,-0.018,-0.0174,0,0,0,0,0,0,0.0079,0.0051,0.0036,0.0037,0.0015,-0.0024,-0.0024,-0.0044,-0.0069,-0.0069,-0.0114,-0.0124,-0.014,-0.0168,-0.0167,-0.0194,-0.0219,-0.022,-0.0167,-0.0162,-0.0157,-0.0126,-0.0205,0,0,0,0,0,0.0088,0.0088,0.0055,0.0056,0.0049,0.0014,0.0004,-0.0016,-0.0042,-0.0053,-0.0084,-0.0117,-0.0145,-0.0159,-0.0189,-0.0201,-0.0222,-0.0203,-0.0198,-0.0193,-0.0174,-0.0187,-0.0181,-0.0247,-0.0247,-0.0247,0,0,0.01,0.0087,0.0085,0.0063,0.0045,0.0044,0.0007,-0.0001,-0.0003,-0.0057,-0.0064,-0.01,-0.0145,-0.0161,-0.017,-0.0182,-0.0191,-0.0192,-0.0188,-0.0171,-0.0185,-0.0179,-0.0173,-0.0247,-0.0247,-0.0247,0,0,0.0132,0.0115,0.0126,0.0112,0.0091,0.0072,0.0074,0.0042,0.0026,0.0012,-0.0028,-0.0055,-0.0094,-0.0126,-0.0148,-0.0133,-0.0165,-0.0142,-0.009,-0.0102,-0.0096,-0.0091,-0.013,-0.0129,-0.0138,-0.0138,-0.0138,0,0.0148,0.0157,0.0127,0.0134,0.0133,0.0091,0.0106,0.0082,0.0047,0.0052,0.0021,-0.0028,-0.0079,-0.009,-0.0092,-0.0121,-0.0134,-0.0108,-0.0094,-0.0089,-0.0085,-0.0126,-0.0126,-0.0134,-0.0135,-0.0135,-0.0135,0,0.0183,0.0192,0.02,0.0197,0.0191,0.0197,0.0165,0.0156,0.0135,0.0124,0.011,0.0039,0.0016,-0.0013,-0.0052,-0.0046,-0.0068,-0.0086,-0.0103,-0.0074,-0.012,-0.0121,-0.013,-0.0131,-0.0132,-0.0133,0,0,0.0222,0.0224,0.0229,0.0246,0.0227,0.0232,0.0228,0.023,0.0259,0.0205,0.024,0.0154,0.0132,0.0106,0.0048,0.0026,0.0014,-0.0008,-0.001,-0.0037,-0.0019,-0.0095,-0.0104,0.0013,0.0014,0.0015,-0.007,0,0.0261,0.0299,0.0284,0.0326,0.0348,0.0313,0.0328,0.0324,0.0316,0.034,0.0268,0.0285,0.0173,0.0179,0.0129,0.0061,0.002,0.0038,-0.0051,-0.0055,-0.0117,-0.0104,-0.0066,-0.0142,-0.0071,-0.0071,-0.0071,0,0.0305,0.0328,0.0378,0.0412,0.042,0.0438,0.0472,0.0488,0.05,0.0496,0.0479,0.0445,0.0393,0.031,0.0175,0.0201,0.0096,0.0026,0.0021,-0.0067,-0.013,-0.0157,-0.0146,-0.0073,-0.0073,-0.0073,-0.0073,0,0.0364,0.0397,0.0448,0.0455,0.0482,0.0503,0.0528,0.055,0.0602,0.0628,0.0671,0.0591,0.0573,0.0441,0.0249,0.0238,0.011,0.0072,-0.0105,-0.0113,-0.0108,-0.0117,-0.0014,-0.0014,-0.0014,-0.0013,-0.0013,0,0.0416,0.0459,0.0485,0.0512,0.0595,0.0592,0.0702,0.0697,0.076,0.0866,0.0776,0.0816,0.0615,0.0506,0.0318,0.0092,0.0147,-0.0091,-0.0131,-0.0089,-0.0095,-0.0052,-0.0055,-0.0017,-0.0016,-0.0015,-0.0015,0,0.048,0.0489,0.0557,0.06,0.0628,0.0698,0.0817,0.09,0.0933,0.1061,0.1086,0.1004,0.0864,0.0621,0.0407,0.0185,-0.0014,-0.0111,-0.0069,-0.0105,-0.0247,-0.0246,-0.03,-0.0303,-0.0305,-0.0308,-0.031,0,0.0514,0.0556,0.0636,0.0694,0.0721,0.0837,0.0925,0.0985,0.1091,0.1182,0.1249,0.1153,0.1071,0.0679,0.0338,-0.0012,-0.0047,-0.0232,-0.0264,-0.0238,-0.0272,-0.0267,-0.0262,-0.0239,-0.024,-0.0241,-0.0242,0,0.0588,0.062,0.0677,0.0789,0.0881,0.1,0.113,0.1228,0.1333,0.1423,0.1483,0.1425,0.1079,0.0726,0.0235,0.0006,-0.0176,-0.0266,-0.0215,-0.0182,-0.019,-0.0221,-0.0216,-0.025,-0.0249,-0.0249,-0.0248,-0.0248,0.0645,0.0694,0.0768,0.0874,0.0995,0.1112,0.1243,0.1379,0.1526,0.1659,0.1606,0.1526,0.1143,0.0507,0.0134,-0.0239,-0.0237,-0.0393,-0.0385,-0.0377,-0.0365,-0.0378,-0.0472,-0.0472,-0.0473,-0.0473,-0.0473,0,0.0692,0.0745,0.0845,0.0967,0.1109,0.1168,0.1354,0.1501,0.1688,0.1736,0.1766,0.1355,0.0957,0.056,0.0001,-0.0378,-0.0369,-0.0486,-0.0384,-0.0375,-0.0367,-0.035,-0.0455,-0.0456,-0.0456,-0.0457,0,0,0.0706,0.0773,0.08,0.1001,0.1154,0.1358,0.1472,0.166,0.1752,0.1775,0.1717,0.1572,0.1063,0.065,0.0175,-0.0121,-0.0159,-0.0184,-0.0166,0.0019,0.0032,-0.029,-0.0252,0,0,0,0,0]}],[{"header":{"parameterUnit":"m.s-1","parameterCategory":2,"la1":30.2991,"la2":30.254,"lo1":-89.0895,"lo2":-89.0444,"dy":0.0017,"dx":0.0017,"nx":28,"ny":28,"refTime":"2025-08-20T09:00:00:Z","depth":"4","parameterNumber":2,"parameterNumberName":"U-component_of_CURRENTS"},"data":[0,0,0,0,0,0,0,0,0,0,0,0,0,0,0,0,0,0,0,0,0,0,0,0,0,0,0,0,0,0,0,0,0,0,0,0,0,0,0,0,0,0,0,0,0,0,0,0,0,0,0,0,0,0,0,0,0,0,0.1481,0.1482,0,0.1525,0.1525,0.1525,0.1583,0.1584,0.1586,0.1587,0.1676,0.1677,0.1678,0,0,0,0,0,0,0,0,0,0,0,0,0,0.1423,0.1424,0.1481,0.1482,0.1482,0.1525,0.1525,0.1525,0.1583,0.1584,0.1586,0.1587,0.1675,0.1677,0.1678,0,0,0,0,0,0,0,0,0,0,0,0,0,0.1453,0.1424,0.1481,0.1518,0.1522,0.1524,0.1525,0.1525,0.1583,0.1584,0.1586,0.1588,0.1675,0.1677,0.1679,0.1656,0,0,0.1684,0.1685,0,0,0,0,0,0,0,0,0.1452,0.1455,0.1512,0.1515,0.152,0.1552,0.1537,0.1572,0.1582,0.1557,0.1587,0.1589,0.1639,0.1644,0.1644,0.166,0.1664,0.1685,0.1686,0.1687,0.1687,0,0,0,0,0,0,0,0.1449,0.1454,0.1496,0.1512,0.1517,0.1524,0.153,0.1544,0.1587,0.156,0.1564,0.1572,0.1641,0.1642,0.1647,0.1665,0.1685,0.1686,0.1688,0.1688,0.1785,0.1786,0,0,0,0,0,0,0.1448,0.1452,0.1495,0.1498,0.1492,0.1524,0.1531,0.1538,0.1586,0.1595,0.1571,0.1575,0.1638,0.1645,0.165,0.1734,0.1687,0.1688,0.169,0.1783,0.1785,0.1787,0,0,0,0,0,0,0.1446,0.1451,0.1493,0.1477,0.1484,0.1524,0.1531,0.1538,0.1576,0.1594,0.1604,0.1606,0.164,0.1648,0.1702,0.1734,0.1689,0.1691,0.1782,0.1784,0.1786,0.1831,0,0,0,0,0,0,0.1444,0.145,0.1465,0.1477,0.1484,0.152,0.153,0.1538,0.1577,0.1584,0.1627,0.1635,0.1642,0.17,0.1704,0.1735,0.1693,0.178,0.1783,0.1785,0.1828,0.1835,0.184,0,0,0,0,0,0.1442,0.1449,0.1466,0.1472,0.15,0.1521,0.1526,0.1558,0.1577,0.1598,0.1635,0.1635,0.172,0.1702,0.1708,0.174,0.1779,0.1782,0.1785,0.1825,0.1833,0.184,0,0,0,0,0,0,0.144,0.1456,0.1475,0.149,0.1519,0.1533,0.1555,0.1574,0.1616,0.1635,0.1652,0.1662,0.1717,0.1723,0.1704,0.1776,0.1749,0.1754,0.1778,0.1786,0.1792,0.1791,0.1694,0,0,0,0,0,0.1444,0.1453,0.1477,0.1496,0.1512,0.1539,0.1557,0.1581,0.1612,0.1634,0.1666,0.17,0.1725,0.1755,0.1772,0.1815,0.1832,0.184,0.1846,0.1851,0.1855,0.1941,0.1956,0.1797,0.1797,0.1797,0,0,0.1447,0.1461,0.1467,0.1497,0.1522,0.1543,0.1555,0.1593,0.162,0.1635,0.1696,0.172,0.1739,0.1786,0.1811,0.1804,0.1898,0.1855,0.1859,0.186,0.1946,0.1961,0.1975,0.1799,0.1799,0.1798,0,0,0.145,0.1477,0.1485,0.1509,0.1552,0.1568,0.1587,0.1625,0.1657,0.1709,0.1725,0.1767,0.1819,0.1833,0.1845,0.1894,0.1921,0.1917,0.196,0.2044,0.2058,0.2071,0.208,0.2094,0.1931,0.1931,0.1931,0,0.1459,0.1473,0.1494,0.1514,0.1539,0.1582,0.1606,0.1636,0.1692,0.1724,0.1742,0.1825,0.1831,0.1883,0.1904,0.1905,0.1954,0.1929,0.2053,0.2066,0.2079,0.2086,0.21,0.1933,0.1933,0.1933,0.1933,0,0.1465,0.1487,0.15,0.1536,0.1565,0.1597,0.1639,0.1678,0.1727,0.1768,0.1847,0.1871,0.1931,0.1934,0.1936,0.2025,0.2029,0.2044,0.2035,0.2098,0.21,0.2114,0.1937,0.1936,0.1935,0.1935,0,0,0.1447,0.1493,0.1502,0.1517,0.1583,0.1599,0.1652,0.1709,0.1765,0.1829,0.1917,0.194,0.1994,0.201,0.203,0.209,0.2188,0.2123,0.2126,0.2131,0.2358,0.2205,0.2204,0.2266,0.2269,0.2272,0.2314,0,0.1451,0.1484,0.151,0.1545,0.1564,0.1615,0.1668,0.1731,0.1805,0.1906,0.1954,0.2057,0.2017,0.2088,0.2136,0.2207,0.2235,0.2173,0.2298,0.2299,0.2156,0.2219,0.2283,0.2324,0.2327,0.233,0.2331,0,0.1442,0.1466,0.1503,0.1552,0.157,0.1611,0.1703,0.1763,0.19,0.1964,0.2067,0.2156,0.2258,0.2232,0.2344,0.2334,0.2341,0.236,0.2364,0.2216,0.2172,0.2257,0.2356,0.2354,0.2353,0.2351,0.2349,0,0.14,0.1452,0.148,0.1499,0.1571,0.1609,0.1678,0.1799,0.1859,0.2054,0.2156,0.2276,0.2386,0.2445,0.2473,0.2466,0.2584,0.2573,0.2406,0.2393,0.2497,0.2484,0.2621,0.2621,0.2621,0.2621,0.2621,0,0.1369,0.139,0.1472,0.1478,0.1526,0.1616,0.1693,0.1778,0.1939,0.2026,0.2222,0.2302,0.2466,0.2553,0.2542,0.2511,0.2637,0.2413,0.241,0.2508,0.2496,0.2505,0.2491,0.2622,0.2622,0.2622,0.2622,0,0.13,0.1359,0.1364,0.1451,0.1496,0.1537,0.167,0.1724,0.193,0.2064,0.2155,0.2376,0.25,0.2586,0.2676,0.2585,0.2578,0.2511,0.2579,0.2578,0.2306,0.2294,0.2361,0.2356,0.2352,0.2349,0.2346,0,0.1268,0.1275,0.1321,0.1318,0.1358,0.1443,0.1501,0.1686,0.1745,0.2047,0.2096,0.2336,0.2444,0.2458,0.2537,0.253,0.2474,0.2453,0.2391,0.2297,0.2288,0.2282,0.2276,0.234,0.2339,0.2337,0.2336,0,0.1184,0.1198,0.1181,0.1177,0.1215,0.1262,0.1377,0.1418,0.1645,0.1851,0.2015,0.2143,0.2268,0.2343,0.2369,0.2335,0.2486,0.2411,0.2418,0.236,0.2273,0.2266,0.2264,0.2323,0.2325,0.2326,0.2327,0,0.1102,0.1036,0.1002,0.0991,0.1036,0.1079,0.1161,0.1269,0.1385,0.1746,0.1759,0.2025,0.2212,0.2235,0.2235,0.2241,0.22,0.2123,0.2145,0.2161,0.2079,0.1938,0.1889,0,0,0,0,0,0.1013,0.0896,0.0833,0.0798,0.0854,0.0908,0.106,0.1162,0.1405,0.1469,0.1625,0.1737,0.1871,0.1978,0.1942,0.2102,0.2169,0.2047,0.2081,0.2246,0.2262,0.2184,0,0,0,0,0,0,0.0913,0.0828,0.0749,0.067,0.0652,0.072,0.0828,0.1008,0.1056,0.1321,0.1394,0.161,0.1738,0.1866,0.1901,0.1929,0.1911,0.2186,0.2181,0.2237,0.2251,0.2264,0.219,0,0,0,0,0]},{"header":{"parameterUnit":"m.s-1","parameterCategory":2,"la1":30.2991,"la2":30.254,"lo1":-89.0895,"lo2":-89.0444,"dy":0.0017,"dx":0.0017,"nx":28,"ny":28,"refTime":"2025-08-20T09:00:00:Z","depth":"4","parameterNumber":3,"parameterNumberName":"V-component_of_CURRENTS"},"data":[0,0,0,0,0,0,0,0,0,0,0,0,0,0,0,0,0,0,0,0,0,0,0,0,0,0,0,0,0,0,0,0,0,0,0,0,0,0,0,0,0,0,0,0,0,0,0,0,0,0,0,0,0,0,0,0,0,0,-0.0047,-0.0047,0,-0.0082,-0.0083,-0.0083,-0.0116,-0.0116,-0.0116,-0.0117,-0.0174,-0.0176,-0.0177,0,0,0,0,0,0,0,0,0,0,0,0,0,-0.0022,-0.0022,-0.0047,-0.0047,-0.0048,-0.0082,-0.0083,-0.0083,-0.0116,-0.0116,-0.0116,-0.0117,-0.0174,-0.0176,-0.0177,0,0,0,0,0,0,0,0,0,0,0,0,0,-0.0043,-0.0022,-0.0047,-0.0068,-0.007,-0.0082,-0.0083,-0.0083,-0.0115,-0.0116,-0.0116,-0.0117,-0.0174,-0.0175,-0.0177,-0.0178,0,0,-0.0183,-0.0184,0,0,0,0,0,0,0,0,-0.0042,-0.0044,-0.0064,-0.0066,-0.0069,-0.0095,-0.0095,-0.0116,-0.0115,-0.0099,-0.0117,-0.0117,-0.0149,-0.0153,-0.0159,-0.0181,-0.0183,-0.0183,-0.0184,-0.0185,-0.0185,0,0,0,0,0,0,0,-0.004,-0.0043,-0.0062,-0.0065,-0.0067,-0.008,-0.0084,-0.0099,-0.0121,-0.01,-0.0102,-0.0105,-0.0151,-0.0157,-0.0161,-0.0184,-0.0183,-0.0184,-0.0186,-0.0186,-0.0217,-0.0217,0,0,0,0,0,0,-0.0034,-0.0041,-0.006,-0.0063,-0.0056,-0.008,-0.0084,-0.0086,-0.0121,-0.0126,-0.0105,-0.0107,-0.0154,-0.0158,-0.0163,-0.0159,-0.0185,-0.0186,-0.0188,-0.0217,-0.0217,-0.0217,0,0,0,0,0,0,-0.0033,-0.0035,-0.0059,-0.0052,-0.0056,-0.008,-0.0082,-0.0087,-0.0094,-0.0124,-0.013,-0.0108,-0.0154,-0.016,-0.0174,-0.0162,-0.0187,-0.0189,-0.0218,-0.0217,-0.0217,-0.0155,0,0,0,0,0,0,-0.0032,-0.0035,-0.0034,-0.0052,-0.0056,-0.0062,-0.0082,-0.0087,-0.0095,-0.0097,-0.0128,-0.0134,-0.0155,-0.0171,-0.0176,-0.0165,-0.019,-0.0218,-0.0217,-0.0217,-0.0158,-0.0153,-0.0149,0,0,0,0,0,-0.0031,-0.0024,-0.0034,-0.0036,-0.0055,-0.0061,-0.0064,-0.0084,-0.0094,-0.0093,-0.0114,-0.0133,-0.0172,-0.0172,-0.0178,-0.0167,-0.0218,-0.0218,-0.0217,-0.016,-0.0154,-0.0149,0,0,0,0,0,0,-0.0013,-0.0028,-0.0038,-0.0037,-0.0047,-0.0066,-0.0066,-0.008,-0.0095,-0.0098,-0.0129,-0.0136,-0.0144,-0.0165,-0.0165,-0.0175,-0.0198,-0.0199,-0.0153,-0.0148,-0.0143,-0.0141,-0.0192,0,0,0,0,0,-0.0008,-0.0008,-0.0024,-0.0023,-0.0026,-0.0046,-0.0051,-0.0063,-0.0079,-0.0086,-0.0108,-0.0131,-0.0146,-0.0154,-0.0173,-0.0176,-0.0221,-0.0174,-0.017,-0.0165,-0.0168,-0.0219,-0.0219,-0.0215,-0.0215,-0.0215,0,0,-0.0002,-0.0009,-0.001,-0.002,-0.0029,-0.0022,-0.005,-0.0053,-0.0048,-0.009,-0.0092,-0.0116,-0.0144,-0.0148,-0.0154,-0.0164,-0.0193,-0.0165,-0.0161,-0.0166,-0.0218,-0.0218,-0.0219,-0.0214,-0.0214,-0.0214,0,0,0.0019,0.0007,0.0016,0.0011,0.0002,-0.0005,-0.0003,-0.002,-0.003,-0.0036,-0.0063,-0.0082,-0.0104,-0.0122,-0.0133,-0.0116,-0.0168,-0.012,-0.0092,-0.014,-0.0141,-0.0142,-0.0209,-0.0217,-0.0115,-0.0115,-0.0115,0,0.0027,0.0036,0.0018,0.0028,0.0029,0.0007,0.0022,0.0014,-0.0007,-0.0014,-0.0029,-0.0072,-0.0091,-0.0102,-0.0093,-0.0105,-0.015,-0.0107,-0.0134,-0.0137,-0.0139,-0.0207,-0.0216,-0.0112,-0.0112,-0.0113,-0.0113,0,0.0055,0.0063,0.007,0.0077,0.0077,0.0084,0.0074,0.0071,0.0057,0.0041,0.0019,-0.0018,-0.0044,-0.005,-0.0063,-0.0083,-0.0116,-0.0124,-0.0146,-0.0136,-0.0208,-0.0219,-0.0108,-0.0109,-0.011,-0.011,0,0,0.0073,0.0087,0.009,0.0102,0.0102,0.0108,0.0118,0.0117,0.0119,0.0089,0.0079,0.0052,0.002,0.0004,-0.0024,-0.0061,-0.0113,-0.0092,-0.0096,-0.0156,-0.0238,-0.0207,-0.0217,-0.0125,-0.0126,-0.0127,-0.0286,0,0.0101,0.0132,0.013,0.0165,0.0181,0.0168,0.0179,0.0173,0.0155,0.014,0.0093,0.0075,0.0044,0.0031,-0.0011,-0.0083,-0.0137,-0.0071,-0.0243,-0.0248,-0.0219,-0.0226,-0.0131,-0.0294,-0.0297,-0.0299,-0.03,0,0.0128,0.0148,0.0183,0.0208,0.0213,0.0231,0.0239,0.0246,0.022,0.0201,0.0164,0.0123,0.0071,0.0042,-0.0095,-0.0052,-0.0142,-0.0208,-0.0215,-0.0215,-0.0236,-0.0307,-0.0321,-0.0319,-0.0317,-0.0316,-0.0315,0,0.0149,0.0185,0.0216,0.0223,0.0247,0.026,0.0274,0.0263,0.0269,0.0238,0.0231,0.015,0.0111,-0.0003,-0.0127,-0.0117,-0.0292,-0.0298,-0.0368,-0.0369,-0.0378,-0.0375,-0.0412,-0.0412,-0.0412,-0.0411,-0.0411,0,0.0173,0.0199,0.023,0.0246,0.0288,0.0291,0.0325,0.032,0.0311,0.0323,0.0265,0.0241,0.0099,-0.0008,-0.0131,-0.0279,-0.0303,-0.0372,-0.0402,-0.035,-0.0342,-0.0387,-0.0382,-0.0417,-0.0416,-0.0415,-0.0414,0,0.0183,0.0203,0.0242,0.0279,0.0298,0.0326,0.0371,0.0395,0.0378,0.0388,0.0382,0.0293,0.0165,0.001,-0.0188,-0.0275,-0.0424,-0.0478,-0.0426,-0.0451,-0.0476,-0.0466,-0.0574,-0.0575,-0.0575,-0.0575,-0.0575,0,0.0188,0.021,0.0268,0.0304,0.0325,0.0375,0.0418,0.0426,0.0451,0.0422,0.0428,0.0313,0.0242,-0.0012,-0.0185,-0.0427,-0.0452,-0.0544,-0.0494,-0.0472,-0.0491,-0.0481,-0.0471,-0.0575,-0.0575,-0.0575,-0.0575,0,0.0199,0.0218,0.0253,0.0338,0.0393,0.0455,0.0511,0.0525,0.0537,0.0523,0.0478,0.0355,0.0205,0.0008,-0.018,-0.0353,-0.0484,-0.0546,-0.0546,-0.05,-0.0474,-0.0491,-0.0481,-0.0575,-0.0575,-0.0575,-0.0575,0,0.0208,0.0232,0.0295,0.0373,0.0445,0.0515,0.0539,0.0576,0.0593,0.0559,0.0534,0.0382,0.028,0.0043,-0.0133,-0.029,-0.0327,-0.0373,-0.0383,-0.0385,-0.0266,-0.0201,-0.0251,0,0,0,0,0,0.022,0.0263,0.0334,0.0419,0.0495,0.0544,0.06,0.0617,0.0618,0.0607,0.0575,0.0446,0.0206,0.009,-0.0059,-0.0153,-0.0372,-0.0335,-0.0434,-0.0577,-0.0577,-0.0464,0,0,0,0,0,0,0.0228,0.0291,0.0338,0.0457,0.0519,0.0608,0.0641,0.0643,0.0635,0.0608,0.0487,0.0421,0.0184,0.0304,-0.0055,-0.0108,-0.0189,-0.0452,-0.0455,-0.0577,-0.0577,-0.0576,-0.046,0,0,0,0,0]}]]